"startDT [UTC]","vpos","CH4 [ppm]","stdev(CH4) [ppm]","CO2 [ppm]","stdev(CO2) [ppm]","H2O [ppm]","stdev(H2O)","p_LGR [torr]","T_LGR [C]","mt1_LGR [us]","mt2_LGR [us]","T_ECpre [C]","T_EC1 [C]","T_EC2 [C]","p_inlet [hPa]","p_in [hPa]","p_out [hPa]","T_inlet [C]","RH_inlet [%]","dwpt_inlet [C]","T_vent [C]","RH_vent [%]","dwpt_vent [C]","flow_vent [l min-1]","flow_inlet [l min-1]","dwpt_sample [C]","T_room [C]"
2012-03-15 00:00:00,0.0,1.9312,0.0009,403.61,0.33,-1.0,0.0,138.21,24.72,24.58,36.22,0.04,-272.73,-272.73,-46,550,-936,18.3,0.7,-42.0,18.6,0.8,-41.2,5.73,2.41,-38.6,24.2
2012-03-15 00:01:00,0.0,1.9314,0.0010,403.48,0.26,-1.0,0.0,138.21,24.72,24.57,36.23,0.04,-272.73,-272.73,-46,550,-936,18.3,0.7,-42.3,18.6,0.7,-41.6,5.73,2.41,-38.7,24.2
2012-03-15 00:02:00,0.0,1.9310,0.0008,403.58,0.33,-1.0,0.0,138.21,24.71,24.58,36.22,0.04,-272.73,-272.73,-47,550,-936,18.4,0.7,-42.0,18.6,0.7,-41.4,5.73,2.51,-38.6,24.3
2012-03-15 00:03:00,0.0,1.9313,0.0009,403.44,0.26,-1.0,0.0,138.21,24.71,24.57,36.24,0.04,-272.73,-272.73,-46,550,-936,18.4,0.8,-41.0,18.6,0.8,-40.5,5.73,2.33,-38.6,24.4
2012-03-15 00:04:00,0.0,1.9313,0.0011,403.42,0.27,-1.0,0.0,138.21,24.71,24.57,36.23,0.04,-272.73,-272.73,-46,550,-936,18.4,1.0,-39.2,18.7,1.0,-38.4,5.73,2.56,-38.6,24.3
2012-03-15 00:05:00,0.0,1.9306,0.0010,403.54,0.29,-1.0,0.0,138.21,24.71,24.58,36.23,0.04,-272.73,-272.73,-46,550,-936,18.4,0.7,-41.7,18.7,0.8,-40.9,5.73,2.32,-38.6,24.3
2012-03-15 00:06:00,0.0,1.9299,0.0009,403.57,0.28,-1.0,0.0,138.21,24.71,24.57,36.23,0.04,-272.73,-272.73,-46,550,-936,18.4,0.7,-42.2,18.7,0.8,-41.3,5.73,2.55,-38.6,24.3
2012-03-15 00:07:00,0.0,1.9292,0.0010,403.51,0.30,-1.0,0.0,138.21,24.71,24.57,36.23,0.04,-272.73,-272.73,-47,550,-936,18.4,0.7,-42.1,18.7,0.7,-41.7,5.73,2.34,-38.5,24.3
2012-03-15 00:08:00,0.0,1.9296,0.0009,403.60,0.29,-1.0,0.0,138.21,24.71,24.58,36.23,0.04,-272.73,-272.73,-46,550,-936,18.4,0.7,-42.0,18.7,0.7,-41.7,5.73,2.50,-38.5,24.4
2012-03-15 00:09:00,0.0,1.9303,0.0010,403.62,0.30,-1.0,0.0,138.21,24.70,24.58,36.23,0.04,-272.73,-272.73,-46,550,-936,18.4,0.7,-42.2,18.7,0.7,-41.4,5.73,2.41,-38.5,24.4
2012-03-15 00:10:00,0.0,1.9301,0.0009,403.55,0.30,-1.0,0.0,138.21,24.70,24.58,36.23,0.04,-272.73,-272.73,-47,550,-936,18.5,0.7,-42.1,18.7,0.8,-41.3,5.73,2.41,-38.5,24.4
2012-03-15 00:11:00,0.0,1.9297,0.0009,403.56,0.29,-1.0,0.0,138.21,24.70,24.58,36.23,0.04,-272.73,-272.73,-46,550,-936,18.5,0.7,-42.1,18.7,0.8,-41.3,5.73,2.50,-38.5,24.3
2012-03-15 00:12:00,0.0,1.9298,0.0008,403.69,0.30,-1.0,0.0,138.21,24.70,24.58,36.23,0.04,-272.73,-272.73,-47,550,-936,18.5,0.7,-42.0,18.7,0.8,-41.1,5.73,2.34,-38.5,24.4
2012-03-15 00:13:00,0.0,1.9292,0.0010,403.59,0.28,-1.0,0.0,138.21,24.71,24.57,36.23,0.04,-272.73,-272.73,-46,551,-936,18.5,0.7,-42.1,18.7,0.8,-41.3,5.73,2.55,-38.5,24.4
2012-03-15 00:14:00,0.0,1.9289,0.0009,403.60,0.27,-1.0,0.0,138.21,24.70,24.58,36.23,0.04,-272.73,-272.73,-46,551,-936,18.5,0.7,-42.1,18.7,0.8,-41.3,5.73,2.31,-38.4,24.5
2012-03-15 00:15:00,0.0,1.9291,0.0008,403.65,0.33,-1.0,0.0,138.21,24.71,24.58,36.22,0.04,-272.73,-272.73,-47,551,-936,18.5,0.7,-42.1,18.7,0.7,-41.4,5.73,2.56,-38.4,24.5
2012-03-15 00:16:00,0.0,1.9296,0.0010,403.56,0.25,-1.0,0.0,138.21,24.71,24.58,36.23,0.04,-272.73,-272.73,-46,551,-936,18.5,0.7,-42.1,18.7,0.7,-41.4,5.73,2.32,-38.4,24.4
2012-03-15 00:17:00,0.0,1.9310,0.0010,403.53,0.27,-1.0,0.0,138.21,24.71,24.58,36.23,0.04,-272.73,-272.73,-47,551,-936,18.5,0.7,-42.1,18.8,0.7,-41.6,5.73,2.53,-38.4,24.4
2012-03-15 00:18:00,0.0,1.9313,0.0008,403.54,0.32,-1.0,0.0,138.21,24.71,24.58,36.23,0.04,-272.73,-272.73,-46,551,-936,18.5,0.7,-42.0,18.8,0.7,-41.4,5.73,2.37,-38.4,24.5
2012-03-15 00:19:00,0.0,1.9323,0.0009,403.44,0.31,-1.0,0.0,138.21,24.71,24.58,36.24,0.04,-272.73,-272.73,-46,551,-936,18.5,0.7,-42.1,18.8,0.7,-41.5,5.73,2.48,-38.4,24.5
2012-03-15 00:20:00,0.0,1.9331,0.0008,403.64,0.27,-1.0,0.0,138.21,24.71,24.58,36.23,0.04,-272.73,-272.73,-47,551,-936,18.5,0.7,-42.0,18.8,0.7,-41.4,5.73,2.42,-38.3,24.5
2012-03-15 00:21:00,0.0,1.9326,0.0009,403.50,0.23,-1.0,0.0,138.21,24.72,24.58,36.24,0.04,-272.73,-272.73,-46,551,-936,18.6,0.7,-42.1,18.8,0.7,-41.3,5.73,2.44,-38.3,24.5
2012-03-15 00:22:00,0.0,1.9319,0.0009,403.63,0.29,-1.0,0.0,138.21,24.72,24.58,36.23,0.04,-272.73,-272.73,-47,551,-936,18.6,0.7,-42.0,18.8,0.8,-41.2,5.73,2.45,-38.3,24.6
2012-03-15 00:23:00,0.0,1.9319,0.0009,403.66,0.24,-1.0,0.0,138.21,24.72,24.58,36.23,0.04,-272.73,-272.73,-46,551,-936,18.6,0.7,-41.7,18.8,0.8,-41.0,5.73,2.40,-38.3,24.5
2012-03-15 00:24:00,0.0,1.9325,0.0008,403.64,0.27,-1.0,0.0,138.21,24.73,24.58,36.23,0.04,-272.73,-272.73,-46,551,-936,18.6,0.7,-41.7,18.8,0.8,-40.9,5.73,2.50,-38.3,24.5
2012-03-15 00:25:00,0.0,1.9326,0.0009,403.68,0.28,-1.0,0.0,138.21,24.73,24.58,36.23,0.04,-272.73,-272.74,-47,551,-936,18.6,0.7,-42.0,18.9,0.7,-41.2,5.73,2.35,-38.3,24.5
2012-03-15 00:26:00,0.0,1.9323,0.0009,403.66,0.28,-1.0,0.0,138.21,24.73,24.58,36.23,0.04,-272.73,-272.73,-46,551,-936,18.6,0.7,-42.0,18.9,0.7,-41.3,5.73,2.53,-38.2,24.5
2012-03-15 00:27:00,0.0,1.9325,0.0008,403.65,0.31,-1.0,0.0,138.21,24.73,24.58,36.23,0.04,-272.73,-272.73,-47,551,-936,18.6,0.7,-42.0,18.9,0.7,-41.5,5.73,2.33,-38.2,24.5
2012-03-15 00:28:00,0.0,1.9329,0.0009,403.65,0.27,-1.0,0.0,138.20,24.73,24.57,36.23,0.04,-272.73,-272.73,-46,551,-936,18.7,0.7,-42.3,18.9,0.7,-41.6,5.73,2.55,-38.2,24.6
2012-03-15 00:29:00,0.0,1.9329,0.0009,403.70,0.28,-1.0,0.0,138.21,24.74,24.58,36.23,0.04,-272.73,-272.72,-47,551,-936,18.7,0.7,-42.0,18.9,0.7,-41.3,5.73,2.32,-38.2,24.5
2012-03-15 00:30:00,0.0,1.9329,0.0009,403.71,0.22,-1.0,0.0,138.20,24.74,24.58,36.23,0.04,-272.73,-272.74,-47,551,-936,18.7,0.7,-42.3,18.9,0.7,-41.6,5.73,2.56,-38.2,24.5
2012-03-15 00:31:00,0.0,1.9325,0.0008,403.65,0.29,-1.0,0.0,138.20,24.74,24.58,36.23,0.04,-272.73,-272.73,-46,551,-936,18.7,0.7,-42.5,18.9,0.7,-41.8,5.73,2.32,-38.2,24.6
2012-03-15 00:32:00,0.0,1.9329,0.0009,403.67,0.28,-1.0,0.0,138.21,24.74,24.58,36.23,0.04,-272.73,-272.73,-47,552,-936,18.7,0.6,-42.8,18.9,0.7,-41.9,5.73,2.55,-38.1,24.6
2012-03-15 00:33:00,0.0,1.9328,0.0009,403.67,0.28,-1.0,0.0,138.20,24.74,24.58,36.23,0.04,-272.73,-272.73,-46,552,-936,18.7,0.6,-42.8,18.9,0.7,-41.9,5.73,2.33,-38.1,24.6
2012-03-15 00:34:00,0.0,1.9327,0.0008,403.70,0.31,-1.0,0.0,138.21,24.74,24.58,36.23,0.04,-272.73,-272.73,-47,552,-936,18.7,0.6,-43.1,18.9,0.7,-42.3,5.73,2.54,-38.1,24.6
2012-03-15 00:35:00,0.0,1.9330,0.0008,403.66,0.26,-1.0,0.0,138.20,24.75,24.58,36.23,0.04,-272.73,-272.73,-46,552,-936,18.7,0.6,-43.0,18.9,0.7,-42.2,5.73,2.34,-38.1,24.6
2012-03-15 00:36:00,0.0,1.9330,0.0008,403.61,0.30,-1.0,0.0,138.20,24.75,24.58,36.23,0.04,-272.73,-272.73,-47,551,-936,18.7,0.6,-42.8,18.9,0.7,-41.8,5.73,2.53,-38.1,24.6
2012-03-15 00:37:00,0.0,1.9329,0.0010,403.68,0.21,-1.0,0.0,138.20,24.75,24.58,36.23,0.04,-272.73,-272.73,-47,552,-936,18.7,0.7,-42.3,18.9,0.7,-41.6,5.73,2.36,-38.1,24.6
2012-03-15 00:38:00,0.0,1.9327,0.0010,403.65,0.29,-1.0,0.0,138.21,24.75,24.58,36.23,0.04,-272.73,-272.73,-46,551,-936,18.7,0.7,-42.3,18.9,0.7,-41.6,5.73,2.49,-38.1,24.6
2012-03-15 00:39:00,0.0,1.9334,0.0009,403.66,0.30,-1.0,0.0,138.20,24.75,24.57,36.23,0.04,-272.73,-272.73,-47,552,-936,18.7,0.7,-42.2,19.0,0.7,-41.4,5.73,2.39,-38.1,24.6
2012-03-15 00:40:00,0.0,1.9332,0.0009,403.65,0.29,-1.0,0.0,138.20,24.75,24.57,36.23,0.04,-272.73,-272.73,-46,552,-936,18.7,0.7,-42.2,19.0,0.7,-41.5,5.73,2.47,-38.1,24.6
2012-03-15 00:41:00,0.0,1.9341,0.0010,403.64,0.26,-1.0,0.0,138.20,24.75,24.57,36.24,0.04,-272.73,-272.73,-47,552,-936,18.7,0.7,-42.3,19.0,0.7,-41.6,5.73,2.41,-38.0,24.6
2012-03-15 00:42:00,0.0,1.9346,0.0009,403.56,0.26,-1.0,0.0,138.20,24.75,24.58,36.23,0.04,-272.73,-272.73,-46,552,-936,18.7,0.7,-42.4,19.0,0.7,-41.6,5.73,2.45,-38.1,24.6
2012-03-15 00:43:00,0.0,1.9355,0.0009,403.63,0.31,-1.0,0.0,138.21,24.75,24.58,36.23,0.04,-272.73,-272.73,-47,552,-936,18.7,0.7,-42.3,19.0,0.7,-41.4,5.73,2.42,-38.0,24.7
2012-03-15 00:44:00,0.0,1.9362,0.0013,403.55,0.35,-1.0,0.0,138.20,24.75,24.58,36.23,0.04,-272.73,-272.73,-47,552,-936,18.7,0.7,-42.4,19.0,0.7,-41.5,5.73,2.45,-38.0,24.7
2012-03-15 00:45:00,0.0,1.9377,0.0009,403.59,0.25,-1.0,0.0,138.20,24.75,24.58,36.23,0.04,-272.73,-272.73,-46,552,-936,18.7,0.7,-42.2,19.0,0.7,-41.5,5.73,2.43,-38.0,24.7
2012-03-15 00:46:00,0.0,1.9380,0.0009,403.53,0.27,-1.0,0.0,138.20,24.75,24.58,36.23,0.04,-272.73,-272.73,-47,552,-936,18.7,0.7,-42.0,19.0,0.7,-41.5,5.73,2.43,-38.0,24.6
2012-03-15 00:47:00,0.0,1.9373,0.0009,403.54,0.24,-1.0,0.0,138.21,24.75,24.58,36.23,0.04,-272.73,-272.73,-46,552,-936,18.7,0.7,-42.0,19.0,0.7,-41.5,5.73,2.45,-38.0,24.6
2012-03-15 00:48:00,0.0,1.9371,0.0011,403.64,0.35,-1.0,0.0,138.20,24.76,24.58,36.22,0.04,-272.73,-272.73,-47,552,-936,18.7,0.7,-41.9,19.0,0.7,-41.5,5.73,2.42,-38.0,24.7
2012-03-15 00:49:00,0.0,1.9355,0.0008,403.52,0.19,-1.0,0.0,138.20,24.76,24.58,36.23,0.04,-272.73,-272.73,-46,552,-936,18.7,0.7,-42.3,19.0,0.7,-41.4,5.73,2.45,-38.0,24.7
2012-03-15 00:50:00,0.0,1.9350,0.0011,403.52,0.32,-1.0,0.0,138.21,24.75,24.57,36.23,0.04,-272.73,-272.73,-47,552,-937,18.7,0.7,-42.3,19.0,0.7,-41.5,5.73,2.43,-38.0,24.7
2012-03-15 00:51:00,0.0,1.9343,0.0009,403.53,0.31,-1.0,0.0,138.20,24.76,24.58,36.23,0.04,-272.73,-272.73,-46,552,-936,18.7,0.7,-42.3,19.0,0.7,-41.5,5.73,2.44,-38.0,24.7
2012-03-15 00:52:00,0.0,1.9341,0.0009,403.63,0.29,-1.0,0.0,138.20,24.76,24.58,36.22,0.04,-272.73,-272.73,-46,552,-937,18.7,0.7,-42.4,19.0,0.7,-41.7,5.73,2.43,-38.0,24.7
2012-03-15 00:53:00,0.0,1.9342,0.0010,403.61,0.33,-1.0,0.0,138.20,24.76,24.57,36.23,0.04,-272.73,-272.73,-47,552,-936,18.7,0.6,-42.7,19.0,0.7,-41.9,5.73,2.44,-38.0,24.7
2012-03-15 00:54:00,0.0,1.9334,0.0009,403.54,0.30,-1.0,0.0,138.21,24.76,24.58,36.23,0.04,-272.74,-272.73,-46,552,-936,18.7,0.6,-42.8,19.0,0.7,-41.8,5.73,2.42,-38.0,24.7
2012-03-15 00:55:00,0.0,1.9337,0.0012,403.60,0.24,-1.0,0.0,138.20,24.77,24.57,36.23,0.04,-272.73,-272.73,-47,552,-936,18.7,0.6,-42.7,19.0,0.7,-41.9,5.73,2.45,-38.0,24.6
2012-03-15 00:56:00,0.0,1.9332,0.0010,403.67,0.24,-1.0,0.0,138.20,24.77,24.58,36.23,0.04,-272.73,-272.73,-46,552,-936,18.7,0.6,-42.7,19.0,0.7,-41.9,5.73,2.41,-37.9,24.7
2012-03-15 00:57:00,0.0,1.9332,0.0009,403.62,0.26,-1.0,0.0,138.20,24.77,24.58,36.23,0.04,-272.73,-272.73,-47,552,-936,18.8,0.6,-42.8,19.0,0.7,-41.9,5.73,2.46,-38.0,24.7
2012-03-15 00:58:00,0.0,1.9331,0.0009,403.70,0.28,-1.0,0.0,138.20,24.77,24.58,36.23,0.04,-272.73,-272.73,-46,552,-936,18.8,0.6,-42.7,19.0,0.7,-41.8,5.73,2.41,-37.9,24.7
2012-03-15 00:59:00,0.0,1.9328,0.0012,403.59,0.24,-1.0,0.0,138.20,24.77,24.58,36.23,0.04,-272.73,-272.73,-47,552,-936,18.8,0.7,-42.3,19.0,0.7,-41.5,5.73,2.45,-37.9,24.8
2012-03-15 01:00:00,0.0,1.9323,0.0008,403.59,0.28,-1.0,0.0,138.20,24.77,24.58,36.23,0.04,-272.73,-272.73,-46,553,-937,18.8,0.7,-42.3,19.0,0.7,-41.5,5.73,2.42,-37.9,24.8
2012-03-15 01:01:00,0.0,1.9326,0.0009,403.62,0.29,-1.0,0.0,138.20,24.77,24.58,36.23,0.04,-272.73,-272.73,-46,553,-936,18.8,0.7,-42.2,19.1,0.7,-41.4,5.73,2.45,-37.9,24.7
2012-03-15 01:02:00,0.0,1.9331,0.0008,403.65,0.29,-1.0,0.0,138.20,24.77,24.58,36.23,0.04,-272.73,-272.73,-47,553,-936,18.8,0.7,-42.3,19.1,0.7,-41.7,5.73,2.40,-37.9,24.7
2012-03-15 01:03:00,0.0,1.9337,0.0010,403.60,0.31,-1.0,0.0,138.20,24.77,24.58,36.23,0.04,-272.73,-272.73,-46,553,-936,18.8,0.7,-42.3,19.1,0.7,-41.7,5.73,2.47,-37.9,24.7
2012-03-15 01:04:00,0.0,1.9338,0.0008,403.65,0.33,-1.0,0.0,138.20,24.78,24.57,36.23,0.04,-272.73,-272.73,-47,552,-936,18.8,0.7,-42.3,19.1,0.7,-41.5,5.73,2.40,-37.9,24.6
2012-03-15 01:05:00,0.0,1.9329,0.0012,403.66,0.29,-1.0,0.0,138.20,24.78,24.58,36.23,0.04,-272.73,-272.73,-46,553,-936,18.8,0.7,-42.3,19.1,0.7,-41.4,5.73,2.47,-37.9,24.7
2012-03-15 01:06:00,0.0,1.9328,0.0009,403.64,0.26,-1.0,0.0,138.20,24.78,24.58,36.23,0.04,-272.73,-272.73,-47,553,-936,18.8,0.7,-42.3,19.1,0.7,-41.5,5.73,2.40,-37.9,24.8
2012-03-15 01:07:00,0.0,1.9327,0.0009,403.69,0.29,-1.0,0.0,138.20,24.78,24.58,36.23,0.04,-272.73,-272.73,-46,553,-936,18.8,0.7,-42.3,19.1,0.7,-41.5,5.73,2.46,-37.9,24.7
2012-03-15 01:08:00,0.0,1.9327,0.0011,403.64,0.28,-1.0,0.0,138.20,24.78,24.58,36.23,0.04,-272.73,-272.73,-47,553,-936,18.8,0.7,-42.2,19.1,0.7,-41.5,5.73,2.42,-37.9,24.7
2012-03-15 01:09:00,0.0,1.9331,0.0009,403.71,0.26,-1.0,0.0,138.20,24.79,24.58,36.23,0.04,-272.73,-272.73,-47,553,-937,18.8,0.7,-42.4,19.1,0.7,-41.5,5.73,2.43,-37.8,24.8
2012-03-15 01:10:00,0.0,1.9337,0.0009,403.71,0.27,-1.0,0.0,138.20,24.79,24.57,36.23,0.04,-272.73,-272.73,-47,553,-937,18.8,0.7,-42.3,19.1,0.7,-41.4,5.73,2.45,-37.8,24.7
2012-03-15 01:11:00,0.0,1.9334,0.0008,403.75,0.28,-1.0,0.0,138.20,24.79,24.58,36.23,0.04,-272.73,-272.73,-47,553,-937,18.8,0.7,-42.4,19.1,0.7,-41.5,5.73,2.41,-37.8,24.7
2012-03-15 01:12:00,0.0,1.9336,0.0009,403.64,0.28,-1.0,0.0,138.20,24.80,24.57,36.24,0.04,-272.73,-272.73,-46,553,-936,18.8,0.7,-42.2,19.1,0.7,-41.4,5.73,2.47,-37.8,24.7
2012-03-15 01:13:00,0.0,1.9337,0.0009,403.67,0.30,-1.0,0.0,138.20,24.80,24.58,36.23,0.04,-272.73,-272.73,-47,553,-937,18.8,0.7,-41.9,19.1,0.7,-41.5,5.73,2.38,-37.8,24.8
2012-03-15 01:14:00,0.0,1.9336,0.0010,403.62,0.26,-1.0,0.0,138.20,24.80,24.58,36.23,0.04,-272.73,-272.73,-46,553,-936,18.9,0.7,-41.9,19.1,0.7,-41.4,5.73,2.50,-37.8,24.9
2012-03-15 01:15:00,0.0,1.9325,0.0011,403.76,0.27,-1.0,0.0,138.20,24.80,24.58,36.23,0.04,-272.73,-272.73,-47,553,-937,18.9,0.7,-41.8,19.1,0.7,-41.3,5.73,2.35,-37.8,24.8
2012-03-15 01:16:00,0.0,1.9319,0.0011,403.76,0.30,-1.0,0.0,138.20,24.81,24.58,36.23,0.04,-272.73,-272.73,-46,553,-936,18.9,0.7,-41.9,19.1,0.8,-41.1,5.73,2.52,-37.8,24.9
2012-03-15 01:17:00,0.0,1.9323,0.0010,403.69,0.32,-1.0,0.0,138.20,24.81,24.57,36.23,0.04,-272.73,-272.73,-47,553,-937,18.9,0.7,-41.7,19.2,0.7,-41.1,5.73,2.34,-37.8,24.9
2012-03-15 01:18:00,0.0,1.9327,0.0010,403.77,0.29,-1.0,0.0,138.20,24.82,24.58,36.23,0.04,-272.73,-272.73,-46,553,-937,18.9,0.7,-41.5,19.2,0.8,-40.8,5.73,2.53,-37.8,24.9
2012-03-15 01:19:00,0.0,1.9324,0.0010,403.74,0.34,-1.0,0.0,138.20,24.82,24.58,36.24,0.04,-272.73,-272.73,-47,553,-937,18.9,0.7,-41.5,19.2,0.8,-40.8,5.73,2.32,-37.7,24.9
2012-03-15 01:20:00,0.0,1.9323,0.0009,403.77,0.32,-1.0,0.0,138.20,24.83,24.58,36.23,0.04,-272.73,-272.73,-47,553,-937,18.9,0.7,-41.5,19.2,0.8,-40.8,5.73,2.55,-37.7,24.9
2012-03-15 01:21:00,0.0,1.9310,0.0009,403.86,0.30,-1.0,0.0,138.20,24.83,24.58,36.23,0.04,-272.73,-272.73,-47,553,-937,19.0,0.8,-41.1,19.2,0.8,-40.6,5.73,2.31,-37.7,24.9
2012-03-15 01:22:00,0.0,1.9319,0.0009,403.81,0.29,-1.0,0.0,138.20,24.83,24.57,36.23,0.04,-272.73,-272.73,-47,554,-937,19.0,0.8,-40.9,19.2,0.8,-40.7,5.73,2.55,-37.7,24.9
2012-03-15 01:23:00,0.0,1.9318,0.0009,403.83,0.28,-1.0,0.0,138.20,24.83,24.58,36.23,0.04,-272.73,-272.73,-47,553,-937,19.0,0.8,-40.8,19.2,0.8,-40.4,5.73,2.32,-37.7,24.9
2012-03-15 01:24:00,0.0,1.9314,0.0008,403.83,0.34,-1.0,0.0,138.20,24.83,24.58,36.23,0.04,-272.73,-272.73,-47,554,-937,19.0,0.8,-40.8,19.3,0.8,-40.4,5.73,2.54,-37.7,24.8
2012-03-15 01:25:00,0.0,1.9309,0.0010,403.82,0.30,-1.0,0.0,138.20,24.83,24.58,36.24,0.04,-272.73,-272.73,-47,553,-937,19.0,0.8,-40.8,19.3,0.8,-40.3,5.73,2.33,-37.7,24.9
2012-03-15 01:26:00,0.0,1.9311,0.0008,403.87,0.28,-1.0,0.0,138.20,24.84,24.58,36.23,0.04,-272.73,-272.73,-47,554,-937,19.0,0.8,-40.8,19.3,0.8,-40.4,5.73,2.51,-37.6,24.9
2012-03-15 01:27:00,0.0,1.9311,0.0008,403.88,0.28,-1.0,0.0,138.20,24.84,24.58,36.23,0.04,-272.73,-272.73,-47,554,-937,19.1,0.8,-40.6,19.3,0.8,-40.3,5.73,2.38,-37.6,24.9
2012-03-15 01:28:00,0.0,1.9310,0.0008,403.86,0.27,-1.0,0.0,138.20,24.84,24.58,36.23,0.04,-272.73,-272.73,-47,554,-937,19.1,0.8,-40.5,19.3,0.8,-40.2,5.73,2.45,-37.6,24.9
2012-03-15 01:29:00,0.0,1.9312,0.0008,403.90,0.22,-1.0,0.0,138.20,24.84,24.58,36.23,0.04,-272.73,-272.73,-47,554,-937,19.1,0.8,-40.3,19.3,0.8,-40.0,5.73,2.43,-37.6,24.9
2012-03-15 01:30:00,0.0,1.9311,0.0009,403.80,0.30,-1.0,0.0,138.20,24.85,24.58,36.24,0.04,-272.73,-272.72,-47,554,-937,19.1,0.8,-40.4,19.3,0.8,-40.0,5.73,2.40,-37.6,24.9
2012-03-15 01:31:00,0.0,1.9312,0.0009,403.89,0.26,-1.0,0.0,138.20,24.85,24.58,36.23,0.04,-272.73,-272.73,-47,554,-937,19.1,0.8,-40.3,19.3,0.8,-40.0,5.73,2.49,-37.6,24.9
2012-03-15 01:32:00,0.0,1.9309,0.0010,403.89,0.24,-1.0,0.0,138.20,24.86,24.58,36.23,0.04,-272.73,-272.73,-47,554,-937,19.1,0.8,-40.4,19.4,0.8,-40.0,5.73,2.34,-37.5,24.9
2012-03-15 01:33:00,0.0,1.9311,0.0010,403.91,0.32,-1.0,0.0,138.20,24.86,24.58,36.23,0.04,-272.73,-272.73,-47,554,-937,19.1,0.8,-40.4,19.4,0.8,-40.0,5.73,2.53,-37.5,24.9
2012-03-15 01:34:00,0.0,1.9314,0.0011,403.84,0.24,-1.0,0.0,138.20,24.87,24.58,36.24,0.04,-272.73,-272.73,-48,554,-937,19.1,0.8,-40.3,19.4,0.9,-39.7,5.73,2.32,-37.5,24.9
2012-03-15 01:35:00,0.0,1.9312,0.0008,403.82,0.29,-1.0,0.0,138.20,24.87,24.58,36.24,0.04,-272.73,-272.73,-47,554,-937,19.2,0.8,-40.0,19.4,0.9,-39.6,5.73,2.55,-37.5,25.0
2012-03-15 01:36:00,0.0,1.9313,0.0008,403.84,0.29,-1.0,0.0,138.20,24.88,24.58,36.24,0.04,-272.73,-272.73,-48,554,-937,19.2,0.8,-40.2,19.4,0.9,-39.7,5.73,2.32,-37.5,25.0
2012-03-15 01:37:00,0.0,1.9309,0.0009,403.92,0.26,-1.0,0.0,138.20,24.88,24.58,36.23,0.04,-272.73,-272.73,-47,554,-937,19.2,0.8,-40.4,19.4,0.8,-39.8,5.73,2.53,-37.5,25.1
2012-03-15 01:38:00,0.0,1.9313,0.0008,403.92,0.29,-1.0,0.0,138.20,24.88,24.58,36.23,0.04,-272.73,-272.73,-48,554,-937,19.2,0.8,-40.3,19.4,0.8,-40.0,5.73,2.36,-37.5,25.1
2012-03-15 01:39:00,0.0,1.9313,0.0010,403.90,0.29,-1.0,0.0,138.20,24.88,24.57,36.23,0.04,-272.73,-272.73,-47,554,-937,19.2,0.8,-40.4,19.4,0.8,-39.9,5.73,2.47,-37.4,25.1
2012-03-15 01:40:00,0.0,1.9311,0.0009,403.81,0.29,-1.0,0.0,138.20,24.89,24.58,36.24,0.04,-272.73,-272.73,-48,555,-937,19.2,0.8,-40.5,19.5,0.8,-40.0,5.73,2.42,-37.4,25.1
2012-03-15 01:41:00,0.0,1.9308,0.0010,403.96,0.32,-1.0,0.0,138.20,24.90,24.58,36.23,0.04,-272.73,-272.73,-47,554,-937,19.2,0.8,-40.6,19.5,0.8,-40.2,5.73,2.39,-37.4,25.1
2012-03-15 01:42:00,0.0,1.9306,0.0009,403.94,0.31,-1.0,0.0,138.20,24.90,24.58,36.23,0.04,-272.73,-272.73,-48,554,-937,19.2,0.8,-40.7,19.5,0.8,-40.2,5.73,2.50,-37.4,25.0
2012-03-15 01:43:00,0.0,1.9295,0.0009,403.94,0.26,-1.0,0.0,138.20,24.91,24.58,36.24,0.04,-272.73,-272.73,-47,555,-937,19.3,0.8,-40.9,19.5,0.8,-40.2,5.73,2.32,-37.4,25.1
2012-03-15 01:44:00,0.0,1.9290,0.0008,404.01,0.30,-1.0,0.0,138.20,24.91,24.58,36.23,0.04,-272.74,-272.73,-48,554,-937,19.3,0.8,-41.0,19.5,0.8,-40.2,5.73,2.54,-37.4,25.1
2012-03-15 01:45:00,0.0,1.9306,0.0009,403.94,0.28,-1.0,0.0,138.20,24.92,24.58,36.23,0.04,-272.73,-272.74,-47,555,-937,19.3,0.8,-40.9,19.5,0.8,-40.2,5.73,2.31,-37.4,25.1
2012-03-15 01:46:00,0.0,1.9313,0.0010,403.98,0.27,-1.0,0.0,138.20,24.93,24.58,36.23,0.04,-272.73,-272.73,-48,555,-937,19.3,0.8,-40.9,19.5,0.8,-40.2,5.73,2.53,-37.3,25.1
2012-03-15 01:47:00,0.0,1.9312,0.0008,403.98,0.27,-1.0,0.0,138.19,24.93,24.58,36.23,0.04,-272.73,-272.73,-47,555,-937,19.3,0.7,-41.0,19.5,0.8,-40.1,5.73,2.36,-37.3,25.2
2012-03-15 01:48:00,0.0,1.9313,0.0009,403.90,0.30,-1.0,0.0,138.19,24.94,24.58,36.24,0.04,-272.73,-272.73,-48,555,-937,19.3,0.8,-40.9,19.5,0.8,-40.1,5.73,2.46,-37.3,25.2
2012-03-15 01:49:00,0.0,1.9318,0.0008,403.82,0.27,-1.0,0.0,138.20,24.94,24.58,36.24,0.04,-272.73,-272.73,-47,555,-937,19.3,0.7,-41.0,19.5,0.8,-40.2,5.73,2.44,-37.3,25.2
2012-03-15 01:50:00,0.0,1.9321,0.0009,403.88,0.29,-1.0,0.0,138.20,24.94,24.58,36.24,0.04,-272.73,-272.73,-48,555,-937,19.3,0.8,-40.9,19.5,0.8,-40.2,5.73,2.39,-37.3,25.2
2012-03-15 01:51:00,0.0,1.9322,0.0010,403.78,0.30,-1.0,0.0,138.19,24.95,24.58,36.24,0.04,-272.73,-272.73,-47,555,-937,19.3,0.8,-40.9,19.6,0.8,-40.2,5.73,2.51,-37.3,25.2
2012-03-15 01:52:00,0.0,1.9324,0.0010,403.92,0.28,-1.0,0.0,138.19,24.95,24.57,36.23,0.04,-272.73,-272.73,-48,555,-937,19.4,0.8,-40.9,19.6,0.8,-40.2,5.73,2.33,-37.3,25.2
2012-03-15 01:53:00,0.0,1.9317,0.0010,403.90,0.24,-1.0,0.0,138.19,24.96,24.58,36.23,0.04,-272.73,-272.73,-47,555,-937,19.4,0.8,-40.9,19.6,0.8,-40.2,5.73,2.54,-37.2,25.3
2012-03-15 01:54:00,0.0,1.9314,0.0009,403.96,0.32,-1.0,0.0,138.19,24.96,24.58,36.23,0.04,-272.73,-272.73,-48,555,-937,19.4,0.8,-40.8,19.6,0.8,-40.2,5.73,2.33,-37.2,25.3
2012-03-15 01:55:00,0.0,1.9323,0.0009,403.87,0.24,-1.0,0.0,138.19,24.97,24.58,36.24,0.04,-272.73,-272.74,-47,555,-937,19.4,0.8,-40.5,19.6,0.8,-40.1,5.73,2.51,-37.2,25.2
2012-03-15 01:56:00,0.0,1.9322,0.0008,403.88,0.29,-1.0,0.0,138.19,24.97,24.57,36.23,0.04,-272.73,-272.73,-48,555,-937,19.4,0.8,-40.6,19.6,0.8,-40.0,5.73,2.37,-37.2,25.2
2012-03-15 01:57:00,0.0,1.9318,0.0008,403.91,0.28,-1.0,0.0,138.20,24.97,24.58,36.24,0.04,-272.73,-272.73,-47,555,-937,19.4,0.8,-40.5,19.6,0.8,-39.9,5.73,2.44,-37.2,25.2
2012-03-15 01:58:00,0.0,1.9321,0.0010,404.00,0.29,-1.0,0.0,138.19,24.98,24.58,36.23,0.04,-272.73,-272.73,-48,555,-937,19.4,0.8,-40.6,19.6,0.8,-40.2,5.73,2.46,-37.2,25.3
2012-03-15 01:59:00,0.0,1.9320,0.0011,403.95,0.30,-1.0,0.0,138.20,24.98,24.58,36.23,0.04,-272.73,-272.73,-47,555,-937,19.4,0.8,-40.5,19.6,0.8,-40.1,5.73,2.37,-37.2,25.3
2012-03-15 02:00:00,1.0,1.9010,0.0221,388.34,11.06,-1.0,0.0,138.19,24.99,24.58,36.24,0.04,-272.72,-272.73,-48,541,-937,19.4,0.8,-40.5,19.6,0.8,-40.2,5.73,2.55,-37.1,25.2
2012-03-15 02:01:00,1.0,1.8750,0.0008,375.68,0.24,-1.0,0.0,138.19,24.99,24.58,36.25,0.04,-272.73,-272.73,-47,539,-937,19.4,0.8,-40.5,19.6,0.8,-40.1,5.73,2.32,-37.1,25.2
2012-03-15 02:02:00,1.0,1.8740,0.0010,375.70,0.24,-1.0,0.0,138.19,25.00,24.58,36.25,0.04,-272.73,-272.73,-48,539,-937,19.4,0.8,-40.5,19.6,0.8,-40.0,5.73,2.54,-37.1,25.2
2012-03-15 02:03:00,1.0,1.8740,0.0008,375.76,0.24,-1.0,0.0,138.19,25.00,24.58,36.25,0.04,-272.73,-272.73,-47,538,-937,19.4,0.8,-40.5,19.7,0.8,-40.1,5.73,2.32,-37.1,25.4
2012-03-15 02:04:00,1.0,1.8749,0.0008,375.65,0.25,-1.0,0.0,138.19,25.01,24.58,36.25,0.04,-272.73,-272.73,-48,538,-937,19.5,0.8,-40.5,19.7,0.8,-40.1,5.73,2.52,-37.1,25.4
2012-03-15 02:05:00,0.0,1.9069,0.0219,391.57,10.93,-1.0,0.0,138.19,25.01,24.58,36.24,0.04,-272.73,-272.73,-47,553,-937,19.5,0.8,-40.7,19.7,0.8,-40.1,5.73,2.41,-37.1,25.4
2012-03-15 02:06:00,0.0,1.9312,0.0009,403.85,0.30,-1.0,0.0,138.19,25.02,24.58,36.24,0.04,-272.73,-272.73,-48,553,-937,19.5,0.8,-40.8,19.7,0.8,-40.1,5.73,2.46,-37.1,25.3
2012-03-15 02:07:00,0.0,1.9310,0.0009,403.79,0.22,-1.0,0.0,138.19,25.02,24.58,36.24,0.04,-272.73,-272.73,-47,553,-937,19.5,0.8,-40.8,19.7,0.8,-40.1,5.73,2.44,-37.1,25.4
2012-03-15 02:08:00,0.0,1.9315,0.0010,403.93,0.28,-1.0,0.0,138.19,25.03,24.58,36.24,0.04,-272.73,-272.73,-48,553,-937,19.6,0.8,-40.8,19.8,0.8,-40.1,5.73,2.37,-37.0,25.5
2012-03-15 02:09:00,0.0,1.9327,0.0010,403.86,0.29,-1.0,0.0,138.19,25.04,24.58,36.23,0.04,-272.73,-272.73,-47,553,-937,19.6,0.8,-40.7,19.8,0.8,-40.0,5.73,2.52,-37.0,25.5
2012-03-15 02:10:00,0.0,1.9327,0.0008,403.76,0.26,-1.0,0.0,138.19,25.04,24.58,36.24,0.04,-272.73,-272.73,-48,554,-937,19.6,0.8,-40.8,19.8,0.8,-40.0,5.73,2.32,-37.0,25.6
2012-03-15 02:11:00,0.0,1.9331,0.0010,403.82,0.29,-1.0,0.0,138.19,25.04,24.58,36.23,0.04,-272.73,-272.73,-47,554,-937,19.6,0.8,-40.7,19.8,0.8,-40.0,5.73,2.55,-37.0,25.6
2012-03-15 02:12:00,0.0,1.9332,0.0010,403.81,0.29,-1.0,0.0,138.19,25.05,24.58,36.24,0.04,-272.73,-272.73,-48,554,-937,19.6,0.8,-40.8,19.8,0.8,-40.0,5.73,2.32,-37.0,25.6
2012-03-15 02:13:00,0.0,1.9329,0.0010,403.83,0.24,-1.0,0.0,138.19,25.06,24.58,36.24,0.04,-272.73,-272.73,-47,554,-937,19.7,0.7,-40.9,19.8,0.8,-40.1,5.73,2.52,-37.0,25.6
2012-03-15 02:14:00,0.0,1.9341,0.0014,403.92,0.28,-1.0,0.0,138.19,25.07,24.58,36.23,0.04,-272.73,-272.73,-48,554,-937,19.6,0.7,-40.8,19.8,0.8,-40.0,5.73,2.38,-37.0,25.6
2012-03-15 02:15:00,0.0,1.9354,0.0010,403.88,0.25,-1.0,0.0,138.19,25.07,24.58,36.23,0.04,-272.73,-272.73,-47,554,-937,19.7,0.7,-40.8,19.9,0.8,-40.0,5.73,2.43,-37.0,25.5
2012-03-15 02:16:00,0.0,1.9365,0.0010,403.95,0.28,-1.0,0.0,138.19,25.07,24.58,36.23,0.04,-272.73,-272.73,-48,554,-937,19.6,0.8,-40.6,19.9,0.8,-40.0,5.73,2.47,-37.0,25.6
2012-03-15 02:17:00,0.0,1.9385,0.0008,403.83,0.27,-1.0,0.0,138.19,25.08,24.58,36.23,0.04,-272.73,-272.73,-47,554,-937,19.7,0.8,-40.5,19.9,0.8,-40.0,5.73,2.36,-37.0,25.5
2012-03-15 02:18:00,0.0,1.9379,0.0008,403.88,0.34,-1.0,0.0,138.19,25.08,24.58,36.23,0.04,-272.73,-272.73,-48,555,-937,19.6,0.8,-40.5,19.9,0.8,-40.0,5.73,2.53,-37.0,25.5